Location: Hillern
(53.0557°N, 9.8577°E)
Time: 01:12:34
(UTC+00:00)

Cosmos 405 Rocket - Pass Details

Date: 19 May 2025
Orbit: 414 x 448 km, 81.2° (Epoch: 15 June)

Event Time Altitude Azimuth Distance (km) Brightness Sun altitude
Rises 21:37:24 0° 349° (N) 2,464 7.8 -13.8°
Reaches altitude 10° 21:39:31 10° 354° (N) 1,582 6.4 -14.0°
Maximum altitude 21:42:56 57° 74° (ENE) 529 2.6 -14.2°
Enters shadow 21:44:29 28° 142° (SE) 859 3.2 -14.3°
